Regional Weather Roundup
Issued by NWS Cleveland, OH

Home | Current Version | Previous Version | Graphics & Text | Print | Product List | Glossary On
Versions: 1 2 3 4 5 6 7 8 9 10 11 12 13 14 15 16 17 18 19 20 21 22 23 24 25 26 27 28 29 30 31 32 33 34 35 36 37 38 39 40 41 42 43 44 45 46 47 48 49 50
000
ASUS41 KCLE 261500
RWRCLE
OHIO REGIONAL WEATHER ROUNDUP
NATIONAL WEATHER SERVICE WILMINGTON, OH
1100 AM EDT TUE SEP 26 2017

NOTE: "FAIR" INDICATES FEW OR NO CLOUDS BELOW 12,000 FEET WITH NO
SIGNIFICANT WEATHER AND/OR OBSTRUCTIONS TO VISIBILITY.

OHZ001>008-015>018-024>027-034-035-043-044-261600-
   NORTHWEST OHIO

CITY           SKY/WX    TMP DP  RH WIND       PRES   REMARKS
DEFIANCE       FAIR      79  65  62 SW5       30.02S
FINDLAY        FAIR      82  64  54 SW7       30.02S
TOLEDO EXPRESS FAIR      80  67  64 SW5       30.01S
TOLEDO EXEC    FAIR      81  64  56 SW7       30.02S
LIMA           FAIR      81  66  60 SW6       30.04S
$$

OHZ009>014-019>023-028>033-038-089-261600-
   NORTHEAST OHIO

CITY           SKY/WX    TMP DP  RH WIND       PRES   REMARKS
CLE-HOPKINS    FAIR      85  62  46 SW6       30.05S
CLE-LAKEFRONT  FAIR      84  63  49 W7        30.02S
CUY CO. ARPT   NOT AVBL
LORAIN-ELYRIA  FAIR      81  60  48 VRB3      30.04S
ASHTABULA      FAIR      80  67  64 S5        30.05F
AKRON-CANTON   FAIR      83  62  49 SW5       30.06F
WOOSTER        NOT AVBL
MANSFIELD      FAIR      82  63  52 SW6       30.06F
YOUNGSTOWN     FAIR      82  63  52 S5        30.06F
$$

OHZ042-051>053-060>062-070>072-077>081-261600-
  SOUTHWEST OHIO

CITY           SKY/WX    TMP DP  RH WIND       PRES   REMARKS
CINC-COVINGTON FAIR      82  68  62 CALM      30.05S
CINC-LUNKEN    FAIR      78  68  71 CALM      30.05S
HAMILTON       FAIR      80  68  66 CALM      30.06S
DAYTON         NOT AVBL
WRIGHT-PAT AFB FAIR      79  68  69 CALM      30.05S
DAYTON GENERAL FAIR      80  64  58 W5        30.05S
WILMINGTON     FAIR      82  65  56 W3        30.06R
$$

OHZ036-037-039>041-045>050-054>059-063>069-073>076-082>088-261600-
  CENTRAL AND SOUTHEAST OHIO

CITY           SKY/WX    TMP DP  RH WIND       PRES   REMARKS
COLUMBUS       FAIR      81  64  56 CALM      30.04F
OSU AIRPORT    FAIR      80  65  59 W3        30.05S
BOLTON FIELD   SUNNY     81  66  61 CALM      30.06S
RICKENBACK AFB NOT AVBL
NEWARK         FAIR      80  65  59 CALM      30.05S
MARION         FAIR      81  62  52 VRB3      30.06S
LANCASTER      FAIR      81  64  56 NW3       30.06S
ZANESVILLE     FAIR      80  64  58 E3        30.05F
NEW PHILLY     FAIR      80  65  59 SW3       30.06F
$$




USA.gov is the U.S. government's official web portal to all federal, state and local government web resources and services.